Time,TemperatureF,DewpointF,PressureIn,WindDirection,WindDirectionDegrees,WindSpeedMPH,WindSpeedGustMPH,Humidity,HourlyPrecipIn,Conditions,Clouds,dailyrainin,SoftwareType,DateUTC
2013-03-03 00:02:00,14.0,14.0,29.91,North,6,0.0,0.0,99,0.00,,,-99.99,,2013-03-03 05:02:00,
2013-03-03 00:12:00,14.0,14.0,29.91,North,6,0.0,0.0,99,0.00,,,-99.99,,2013-03-03 05:12:00,
2013-03-03 00:22:00,14.0,14.0,29.91,North,11,0.0,2.0,99,0.00,,,-99.99,,2013-03-03 05:22:00,
2013-03-03 00:32:00,14.0,14.0,29.91,WNW,291,6.0,7.0,99,0.00,,,-99.99,,2013-03-03 05:32:00,
2013-03-03 00:42:00,14.0,14.0,29.91,WNW,291,6.0,7.0,99,0.00,,,-99.99,,2013-03-03 05:42:00,
2013-03-03 00:52:00,13.0,13.0,29.91,NNE,17,0.0,0.0,99,0.00,,,-99.99,,2013-03-03 05:52:00,
2013-03-03 01:02:00,13.0,13.0,29.91,North,350,4.0,5.0,99,0.00,,,-99.99,,2013-03-03 06:02:00,
2013-03-03 01:11:00,13.0,13.0,29.91,North,350,4.0,5.0,99,0.00,,,-99.99,,2013-03-03 06:11:00,
2013-03-03 01:21:00,13.0,13.0,29.91,NNW,345,0.0,6.0,99,0.00,,,-99.99,,2013-03-03 06:21:00,
2013-03-03 01:32:00,13.0,13.0,29.91,NNW,345,0.0,6.0,99,0.00,,,-99.99,,2013-03-03 06:32:00,
2013-03-03 01:42:00,13.0,13.0,29.91,NNW,345,0.0,6.0,99,0.00,,,-99.99,,2013-03-03 06:42:00,
2013-03-03 01:52:00,13.0,13.0,29.92,NNE,28,0.0,3.0,99,0.00,,,-99.99,,2013-03-03 06:52:00,
2013-03-03 02:01:00,13.0,13.0,29.92,NNE,28,0.0,0.0,99,0.00,,,-99.99,,2013-03-03 07:01:00,
2013-03-03 02:11:00,13.0,13.0,29.92,NNE,28,0.0,0.0,99,0.00,,,-99.99,,2013-03-03 07:11:00,
2013-03-03 02:21:00,13.0,13.0,29.92,NNE,15,0.0,0.0,99,0.00,,,-99.99,,2013-03-03 07:21:00,
2013-03-03 02:32:00,13.0,13.0,29.90,WNW,284,0.0,9.0,99,0.00,,,-99.99,,2013-03-03 07:32:00,
2013-03-03 02:42:00,13.0,13.0,29.90,WNW,284,0.0,9.0,99,0.00,,,-99.99,,2013-03-03 07:42:00,
2013-03-03 02:51:00,12.0,12.0,29.89,NNW,342,0.0,6.0,99,0.00,,,-99.99,,2013-03-03 07:51:00,
2013-03-03 03:01:00,12.0,12.0,29.88,NNE,15,0.0,3.0,99,0.00,,,-99.99,,2013-03-03 08:01:00,
2013-03-03 03:11:00,12.0,12.0,29.88,NNE,15,0.0,3.0,99,0.00,,,-99.99,,2013-03-03 08:11:00,
2013-03-03 03:21:00,12.0,12.0,29.89,NNE,24,0.0,4.0,99,0.00,,,-99.99,,2013-03-03 08:21:00,
2013-03-03 03:32:00,12.0,12.0,29.89,North,7,0.0,0.0,99,0.00,,,-99.99,,2013-03-03 08:32:00,
2013-03-03 03:42:00,12.0,12.0,29.89,North,7,0.0,0.0,99,0.00,,,-99.99,,2013-03-03 08:42:00,
2013-03-03 03:54:00,12.0,12.0,29.89,North,359,3.0,8.0,99,0.00,,,-99.99,,2013-03-03 08:54:00,
2013-03-03 04:01:00,12.0,12.0,29.89,North,352,0.0,0.0,99,0.00,,,-99.99,,2013-03-03 09:01:00,
2013-03-03 04:11:00,12.0,12.0,29.89,North,352,0.0,0.0,99,0.00,,,-99.99,,2013-03-03 09:11:00,
2013-03-03 04:21:00,12.0,12.0,29.88,North,359,0.0,3.0,99,0.00,,,-99.99,,2013-03-03 09:21:00,
2013-03-03 04:32:00,12.0,12.0,29.88,North,0,0.0,4.0,99,0.00,,,-99.99,,2013-03-03 09:32:00,
2013-03-03 04:41:00,12.0,12.0,29.88,North,0,0.0,4.0,99,0.00,,,-99.99,,2013-03-03 09:41:00,
2013-03-03 04:52:00,12.0,12.0,29.88,North,0,0.0,4.0,99,0.00,,,-99.99,,2013-03-03 09:52:00,
2013-03-03 05:01:00,12.0,12.0,29.88,North,0,0.0,2.0,99,0.00,,,-99.99,,2013-03-03 10:01:00,
2013-03-03 05:11:00,12.0,12.0,29.88,North,0,0.0,2.0,99,0.00,,,-99.99,,2013-03-03 10:11:00,
2013-03-03 05:21:00,12.0,12.0,29.88,North,353,0.0,3.0,99,0.00,,,-99.99,,2013-03-03 10:21:00,
2013-03-03 05:32:00,12.0,12.0,29.89,West,281,0.0,2.0,99,0.00,,,-99.99,,2013-03-03 10:32:00,
2013-03-03 05:42:00,12.0,12.0,29.89,West,281,0.0,2.0,99,0.00,,,-99.99,,2013-03-03 10:42:00,
2013-03-03 05:52:00,11.0,11.0,29.89,NE,35,0.0,10.0,99,0.00,,,-99.99,,2013-03-03 10:52:00,
2013-03-03 06:01:00,11.0,11.0,29.89,North,359,0.0,5.0,99,0.00,,,-99.99,,2013-03-03 11:01:00,
2013-03-03 06:11:00,11.0,11.0,29.89,North,359,0.0,5.0,99,0.00,,,-99.99,,2013-03-03 11:11:00,
2013-03-03 06:22:00,11.0,11.0,29.89,North,359,0.0,0.0,99,0.00,,,-99.99,,2013-03-03 11:22:00,
2013-03-03 06:32:00,10.0,10.0,29.89,North,0,0.0,5.0,99,0.00,,,-99.99,,2013-03-03 11:32:00,
2013-03-03 06:42:00,10.0,10.0,29.89,North,0,0.0,5.0,99,0.00,,,-99.99,,2013-03-03 11:42:00,
2013-03-03 06:52:00,10.0,10.0,29.89,North,357,0.0,3.0,99,0.00,,,-99.99,,2013-03-03 11:52:00,
2013-03-03 07:02:00,10.0,10.0,29.89,North,357,0.0,3.0,99,0.00,,,-99.99,,2013-03-03 12:02:00,
2013-03-03 07:11:00,10.0,10.0,29.89,North,357,0.0,3.0,99,0.00,,,-99.99,,2013-03-03 12:11:00,
2013-03-03 07:21:00,10.0,10.0,29.90,NW,312,0.0,0.0,99,0.00,,,-99.99,,2013-03-03 12:21:00,
2013-03-03 07:32:00,10.0,10.0,29.90,NE,46,0.0,5.0,99,0.00,,,-99.99,,2013-03-03 12:32:00,
2013-03-03 07:43:00,10.0,10.0,29.90,NE,46,0.0,5.0,99,0.00,,,-99.99,,2013-03-03 12:43:00,
2013-03-03 07:53:00,11.0,11.0,29.90,North,359,0.0,0.0,99,0.00,,,-99.99,,2013-03-03 12:53:00,
2013-03-03 08:01:00,11.0,11.0,29.90,North,359,0.0,0.0,99,0.00,,,-99.99,,2013-03-03 13:01:00,
2013-03-03 08:11:00,11.0,11.0,29.90,North,359,0.0,0.0,99,0.00,,,-99.99,,2013-03-03 13:11:00,
2013-03-03 08:22:00,12.0,12.0,29.90,North,6,0.0,1.0,99,0.00,,,-99.99,,2013-03-03 13:22:00,
2013-03-03 08:32:00,12.0,12.0,29.91,North,352,0.0,2.0,99,0.00,,,-99.99,,2013-03-03 13:32:00,
2013-03-03 08:42:00,12.0,12.0,29.91,North,352,0.0,2.0,99,0.00,,,-99.99,,2013-03-03 13:42:00,
2013-03-03 08:52:00,13.0,13.0,29.91,NW,323,0.0,0.0,99,0.00,,,-99.99,,2013-03-03 13:52:00,
2013-03-03 09:02:00,13.0,13.0,29.91,NNW,340,0.0,0.0,99,0.00,,,-99.99,,2013-03-03 14:02:00,
2013-03-03 09:11:00,13.0,13.0,29.91,NNW,340,0.0,0.0,99,0.00,,,-99.99,,2013-03-03 14:11:00,
2013-03-03 09:21:00,14.0,14.0,29.91,North,352,0.0,2.0,99,0.00,,,-99.99,,2013-03-03 14:21:00,
2013-03-03 09:32:00,15.0,15.0,29.91,NNW,338,0.0,0.0,99,0.00,,,-99.99,,2013-03-03 14:32:00,
2013-03-03 09:42:00,15.0,15.0,29.91,NNW,338,0.0,0.0,99,0.00,,,-99.99,,2013-03-03 14:42:00,
2013-03-03 09:52:00,17.0,17.0,29.92,NNW,347,0.0,0.0,99,0.00,,,-99.99,,2013-03-03 14:52:00,
2013-03-03 10:02:00,17.0,17.0,29.92,NNW,347,0.0,0.0,99,0.00,,,-99.99,,2013-03-03 15:02:00,
2013-03-03 10:11:00,17.0,17.0,29.92,NNW,347,0.0,0.0,99,0.00,,,-99.99,,2013-03-03 15:11:00,
2013-03-03 10:22:00,16.0,16.0,29.92,NNW,328,0.0,4.0,99,0.00,,,-99.99,,2013-03-03 15:22:00,
2013-03-03 10:32:00,17.0,17.0,29.92,NNW,328,0.0,0.0,99,0.00,,,-99.99,,2013-03-03 15:32:00,
2013-03-03 10:42:00,17.0,17.0,29.92,NNW,328,0.0,0.0,99,0.00,,,-99.99,,2013-03-03 15:42:00,
2013-03-03 10:52:00,17.0,17.0,29.92,NNW,328,0.0,0.0,99,0.00,,,-99.99,,2013-03-03 15:52:00,
2013-03-03 11:01:00,18.0,18.0,29.92,NNW,345,0.0,0.0,99,0.00,,,-99.99,,2013-03-03 16:01:00,
2013-03-03 11:12:00,18.0,18.0,29.92,NNW,345,0.0,0.0,99,0.00,,,-99.99,,2013-03-03 16:12:00,
2013-03-03 11:22:00,18.0,18.0,29.92,North,4,0.0,0.0,98,0.01,,,-99.99,,2013-03-03 16:22:00,
2013-03-03 11:32:00,18.0,18.0,29.92,North,6,0.0,4.0,98,0.01,,,-99.99,,2013-03-03 16:32:00,
2013-03-03 11:42:00,18.0,18.0,29.92,North,6,0.0,4.0,98,0.01,,,-99.99,,2013-03-03 16:42:00,
2013-03-03 11:52:00,18.0,18.0,29.92,North,0,0.0,0.0,98,0.01,,,-99.99,,2013-03-03 16:52:00,
2013-03-03 12:01:00,18.0,18.0,29.92,North,6,0.0,0.0,98,0.01,,,-99.99,,2013-03-03 17:01:00,
2013-03-03 12:11:00,17.0,17.0,29.92,NW,314,0.0,0.0,98,0.00,,,-99.99,,2013-03-03 17:11:00,
2013-03-03 12:22:00,17.0,17.0,29.92,NW,314,0.0,0.0,98,0.00,,,-99.99,,2013-03-03 17:22:00,
2013-03-03 12:32:00,17.0,17.0,29.92,NW,314,0.0,0.0,98,0.00,,,-99.99,,2013-03-03 17:32:00,
2013-03-03 12:42:00,17.0,17.0,29.92,NW,314,0.0,0.0,98,0.00,,,-99.99,,2013-03-03 17:42:00,
2013-03-03 12:52:00,18.0,18.0,29.92,NNW,343,0.0,0.0,98,0.00,,,-99.99,,2013-03-03 17:52:00,
2013-03-03 13:02:00,18.0,18.0,29.92,NNW,343,0.0,0.0,98,0.00,,,-99.99,,2013-03-03 18:02:00,
2013-03-03 13:11:00,18.0,18.0,29.92,NNW,343,0.0,0.0,98,0.00,,,-99.99,,2013-03-03 18:11:00,
2013-03-03 13:21:00,18.0,17.0,29.92,NNW,332,4.0,4.0,97,0.00,,,-99.99,,2013-03-03 18:21:00,
2013-03-03 13:32:00,17.0,16.0,29.92,NW,315,1.0,9.0,97,0.00,,,-99.99,,2013-03-03 18:32:00,
2013-03-03 13:42:00,17.0,16.0,29.92,NW,315,1.0,9.0,97,0.00,,,-99.99,,2013-03-03 18:42:00,
2013-03-03 13:52:00,17.0,17.0,29.91,North,4,3.0,8.0,98,0.00,,,-99.99,,2013-03-03 18:52:00,
2013-03-03 14:02:00,17.0,17.0,29.91,NNW,328,0.0,5.0,98,0.00,,,-99.99,,2013-03-03 19:02:00,
2013-03-03 14:11:00,17.0,17.0,29.91,NNW,328,0.0,5.0,98,0.00,,,-99.99,,2013-03-03 19:11:00,
2013-03-03 14:22:00,17.0,17.0,29.91,NNW,328,0.0,5.0,98,0.00,,,-99.99,,2013-03-03 19:22:00,
2013-03-03 14:32:00,18.0,18.0,29.91,NNW,330,1.0,8.0,98,0.01,,,-99.99,,2013-03-03 19:32:00,
2013-03-03 14:42:00,18.0,18.0,29.91,NNW,330,1.0,8.0,98,0.01,,,-99.99,,2013-03-03 19:42:00,
2013-03-03 14:52:00,18.0,18.0,29.91,NNW,336,0.0,11.0,98,0.01,,,-99.99,,2013-03-03 19:52:00,
2013-03-03 15:01:00,18.0,18.0,29.91,NW,309,3.0,8.0,98,0.01,,,-99.99,,2013-03-03 20:01:00,
2013-03-03 15:11:00,18.0,18.0,29.91,NW,309,3.0,8.0,98,0.01,,,-99.99,,2013-03-03 20:11:00,
2013-03-03 15:21:00,18.0,17.0,29.90,NNW,330,7.0,8.0,97,0.02,,,-99.99,,2013-03-03 20:21:00,
2013-03-03 15:32:00,18.0,17.0,29.90,North,0,1.0,15.0,97,0.01,,,-99.99,,2013-03-03 20:32:00,
2013-03-03 15:42:00,18.0,17.0,29.90,North,0,1.0,15.0,97,0.01,,,-99.99,,2013-03-03 20:42:00,
2013-03-03 15:53:00,19.0,18.0,29.90,NNW,335,5.0,12.0,97,0.01,,,-99.99,,2013-03-03 20:53:00,
2013-03-03 16:02:00,19.0,18.0,29.90,NNW,335,5.0,12.0,97,0.01,,,-99.99,,2013-03-03 21:02:00,
2013-03-03 16:11:00,19.0,18.0,29.90,NNW,335,5.0,12.0,97,0.01,,,-99.99,,2013-03-03 21:11:00,
2013-03-03 16:22:00,18.0,17.0,29.91,NNE,18,0.0,8.0,97,0.01,,,-99.99,,2013-03-03 21:22:00,
2013-03-03 16:32:00,18.0,17.0,29.91,NNE,18,0.0,8.0,97,0.01,,,-99.99,,2013-03-03 21:32:00,
2013-03-03 16:42:00,18.0,17.0,29.91,NNE,18,0.0,8.0,97,0.01,,,-99.99,,2013-03-03 21:42:00,
2013-03-03 16:52:00,17.0,17.0,29.91,NNW,332,0.0,8.0,98,0.01,,,-99.99,,2013-03-03 21:52:00,
2013-03-03 17:02:00,16.0,16.0,29.92,NNW,343,6.0,9.0,98,0.01,,,-99.99,,2013-03-03 22:02:00,
2013-03-03 17:11:00,16.0,16.0,29.92,NNW,343,6.0,9.0,98,0.01,,,-99.99,,2013-03-03 22:11:00,
2013-03-03 17:22:00,15.0,15.0,29.91,NNW,336,4.0,14.0,99,0.01,,,-99.99,,2013-03-03 22:22:00,
2013-03-03 17:32:00,15.0,15.0,29.92,North,1,2.0,15.0,99,0.00,,,-99.99,,2013-03-03 22:32:00,
2013-03-03 17:42:00,15.0,15.0,29.92,North,1,2.0,15.0,99,0.00,,,-99.99,,2013-03-03 22:42:00,
2013-03-03 17:52:00,15.0,15.0,29.92,North,1,2.0,15.0,99,0.00,,,-99.99,,2013-03-03 22:52:00,
2013-03-03 18:01:00,15.0,15.0,29.92,NW,307,7.0,13.0,99,0.00,,,-99.99,,2013-03-03 23:01:00,
2013-03-03 18:11:00,15.0,15.0,29.92,NW,307,7.0,13.0,99,0.00,,,-99.99,,2013-03-03 23:11:00,
2013-03-03 18:22:00,15.0,15.0,29.92,NE,37,5.0,10.0,99,0.00,,,-99.99,,2013-03-03 23:22:00,
2013-03-03 18:32:00,15.0,15.0,29.92,NE,37,5.0,10.0,99,0.00,,,-99.99,,2013-03-03 23:32:00,
2013-03-03 18:42:00,15.0,15.0,29.92,NE,37,5.0,10.0,99,0.00,,,-99.99,,2013-03-03 23:42:00,
2013-03-03 18:52:00,14.0,14.0,29.91,NNW,339,5.0,9.0,99,0.00,,,-99.99,,2013-03-03 23:52:00,
2013-03-03 19:01:00,14.0,14.0,29.91,NNW,339,5.0,9.0,99,0.00,,,-99.99,,2013-03-04 00:01:00,
2013-03-03 19:11:00,14.0,14.0,29.91,NNW,339,5.0,9.0,99,0.00,,,-99.99,,2013-03-04 00:11:00,
2013-03-03 19:21:00,14.0,14.0,29.92,North,3,7.0,10.0,99,0.00,,,-99.99,,2013-03-04 00:21:00,
2013-03-03 19:32:00,14.0,14.0,29.92,North,352,6.0,14.0,99,0.00,,,-99.99,,2013-03-04 00:32:00,
2013-03-03 19:42:00,14.0,14.0,29.92,North,352,6.0,14.0,99,0.00,,,-99.99,,2013-03-04 00:42:00,
2013-03-03 19:52:00,13.0,13.0,29.93,WNW,293,5.0,9.0,99,0.00,,,-99.99,,2013-03-04 00:52:00,
2013-03-03 20:01:00,13.0,13.0,29.93,NNW,339,9.0,22.0,99,0.00,,,-99.99,,2013-03-04 01:01:00,
2013-03-03 20:12:00,13.0,13.0,29.93,NNW,339,9.0,22.0,99,0.00,,,-99.99,,2013-03-04 01:12:00,
2013-03-03 20:21:00,13.0,13.0,29.94,NNW,339,0.0,10.0,99,0.00,,,-99.99,,2013-03-04 01:21:00,
2013-03-03 20:32:00,13.0,13.0,29.94,NNW,339,0.0,10.0,99,0.00,,,-99.99,,2013-03-04 01:32:00,
2013-03-03 20:42:00,13.0,13.0,29.94,NNW,339,0.0,10.0,99,0.00,,,-99.99,,2013-03-04 01:42:00,
2013-03-03 20:52:00,13.0,13.0,29.94,NNE,28,8.0,14.0,99,0.00,,,-99.99,,2013-03-04 01:52:00,
2013-03-03 21:01:00,13.0,13.0,29.95,NNW,330,4.0,8.0,99,0.00,,,-99.99,,2013-03-04 02:01:00,
2013-03-03 21:11:00,13.0,13.0,29.95,North,0,2.0,13.0,99,0.00,,,-99.99,,2013-03-04 02:11:00,
2013-03-03 21:22:00,13.0,13.0,29.95,North,0,2.0,13.0,99,0.00,,,-99.99,,2013-03-04 02:22:00,
2013-03-03 21:32:00,13.0,13.0,29.95,North,1,4.0,13.0,99,0.00,,,-99.99,,2013-03-04 02:32:00,
2013-03-03 21:42:00,13.0,13.0,29.95,North,1,4.0,13.0,99,0.00,,,-99.99,,2013-03-04 02:42:00,
2013-03-03 21:52:00,13.0,13.0,29.96,NNE,24,0.0,7.0,99,0.00,,,-99.99,,2013-03-04 02:52:00,
2013-03-03 22:02:00,13.0,13.0,29.96,NW,325,4.0,10.0,99,0.00,,,-99.99,,2013-03-04 03:02:00,
2013-03-03 22:11:00,13.0,13.0,29.96,NW,325,4.0,10.0,99,0.00,,,-99.99,,2013-03-04 03:11:00,
2013-03-03 22:22:00,13.0,13.0,29.96,NE,41,3.0,9.0,99,0.00,,,-99.99,,2013-03-04 03:22:00,
2013-03-03 22:32:00,13.0,13.0,29.96,NE,49,7.0,17.0,99,0.00,,,-99.99,,2013-03-04 03:32:00,
2013-03-03 22:42:00,13.0,13.0,29.95,NNW,347,0.0,8.0,99,0.00,,,-99.99,,2013-03-04 03:42:00,
2013-03-03 22:52:00,13.0,13.0,29.95,NNW,347,0.0,8.0,99,0.00,,,-99.99,,2013-03-04 03:52:00,
2013-03-03 23:01:00,13.0,13.0,29.95,North,357,5.0,6.0,99,0.00,,,-99.99,,2013-03-04 04:01:00,
2013-03-03 23:11:00,13.0,13.0,29.95,North,357,5.0,6.0,99,0.00,,,-99.99,,2013-03-04 04:11:00,
2013-03-03 23:22:00,13.0,13.0,29.95,North,359,0.0,9.0,99,0.00,,,-99.99,,2013-03-04 04:22:00,
2013-03-03 23:32:00,12.0,12.0,29.95,NNE,15,0.0,11.0,99,0.00,,,-99.99,,2013-03-04 04:32:00,
2013-03-03 23:42:00,12.0,12.0,29.95,NNE,15,0.0,11.0,99,0.00,,,-99.99,,2013-03-04 04:42:00,
2013-03-03 23:52:00,12.0,12.0,29.95,NNW,333,0.0,9.0,99,0.00,,,-99.99,,2013-03-04 04:52:00,